Regional Weather Roundup
Issued by NWS

Home | Current Version | Previous Version | Graphics & Text | Print | Product List | Glossary On
Versions: 1 2 3 4 5 6 7 8 9 10 11 12 13 14 15 16 17 18 19 20 21 22 23 24 25 26 27 28 29 30 31 32 33 34 35 36 37 38 39 40 41 42 43 44 45 46 47 48 49 50
000
ASUS43 KOAX 061510
RWRNE

WEATHER ROUNDUP FOR NEBRASKA
NATIONAL WEATHER SERVICE OMAHA NE
900 AM CST FRI MAR 06 2015

NOTES: SATELLITE DATA IS BEING USED TO AUGMENT CLOUD COVER ABOVE
       12000 FEET.
       "FAIR" INDICATES FEW OR NO CLOUDS BELOW 12,000 FEET WITH NO
       SIGNIFICANT WEATHER AND/OR OBSTRUCTIONS TO VISIBILITY.

  * THESE STATIONS DO NOT REPORT WEATHER SUCH AS RAIN...SNOW OR FOG.

NEZ001>004-019>022-054>056-061600-
NEBRASKA PANHANDLE

CITY           SKY/WX    TMP DP  RH WIND       PRES   REMARKS
SCOTTSBLUFF    SUNNY     36  23  59 NW8       30.25R WCI  30
ALLIANCE       SUNNY     34  23  64 W16       30.20R WCI  24
CHADRON        MOSUNNY   35  23  61 W8        30.20R WCI  29
KIMBALL        SUNNY     37  18  45 W15G21    30.23R WCI  28
SIDNEY         SUNNY     37  20  50 W13       30.25R WCI  29
$$

NEZ057>060-069>072-079>082-061600-
SOUTHWEST NEBRASKA

CITY           SKY/WX    TMP DP  RH WIND       PRES   REMARKS
NORTH PLATTE   SUNNY     31  24  75 NW8       30.24R WCI  23
IMPERIAL         N/A     37  20  50 W12       30.26R WCI  29
LEXINGTON      SUNNY     31  22  69 W8        30.24R WCI  23
MCCOOK         SUNNY     32  22  66 SW10      30.27R WCI  24
OGALLALA       SUNNY     31  23  73 W8        30.25R WCI  23
$$

NEZ005>010-023>029-035>040-094-061600-
NORTH CENTRAL NEBRASKA

CITY           SKY/WX    TMP DP  RH WIND       PRES   REMARKS
VALENTINE      SUNNY     33  23  66 W13       30.15R WCI  24
AINSWORTH      SUNNY     37  22  53 W10       30.15R WCI  30
BROKEN BOW     SUNNY     37  19  48 W13       30.20R WCI  29
O`NEILL        SUNNY     38  23  54 W12       30.14S WCI  30
ORD            SUNNY     34  19  54 CALM      30.19R
THEDFORD       SUNNY     35  24  64 NW5       30.19R WCI  31
$$

NEZ041-046>049-061>064-073>077-083>087-061600-
SOUTH CENTRAL NEBRASKA

CITY           SKY/WX    TMP DP  RH WIND       PRES   REMARKS
GRAND ISLAND   SUNNY     34  18  52 W12       30.23R WCI  25
AURORA         SUNNY     37  19  47 W9        30.23R WCI  30
HASTINGS       SUNNY     35  17  47 W9        30.23R WCI  28
HEBRON         SUNNY     34  16  47 W5        30.26R WCI  30
HOLDREGE       SUNNY     35  20  54 W9        30.25R WCI  28
KEARNEY *      SUNNY     36  18  48 W12       30.24R WCI  27
YORK           SUNNY     36  19  51 NW10      30.24R WCI  28
$$

NEZ011>018-030>034-042>045-061600-
NORTHEAST NEBRASKA

CITY           SKY/WX    TMP DP  RH WIND       PRES   REMARKS
NORFOLK        SUNNY     37  19  48 W9        30.17R WCI  30
ALBION         SUNNY     34  18  51 CALM      30.18S
BLAIR          SUNNY     31  16  54 SW9       30.19R WCI  23
COLUMBUS *     SUNNY     32  12  43 W9        30.22R WCI  24
FREMONT        SUNNY     33  18  52 SW6       30.20R WCI  28
TEKAMAH        SUNNY     31  16  54 S5        30.19R WCI  26
WAYNE          SUNNY     37  19  46 W5        30.16S WCI  34
$$

NEZ050>053-065>068-078-088>093-061600-
SOUTHEAST NEBRASKA

CITY           SKY/WX    TMP DP  RH WIND       PRES   REMARKS
LINCOLN        SUNNY     34  17  50 W7        30.25R WCI  28
OMAHA EPPLEY   MOSUNNY   29  17  61 S5        30.22R WCI  24
BEATRICE       SUNNY     34  18  50 W9        30.26R WCI  27
FALLS CITY     SUNNY     39  21  48 W14       30.26R WCI  31
NEBRASKA CITY  SUNNY     35  15  44 W15       30.23R WCI  25
PLATTSMOUTH    SUNNY     34  16  48 SW8       30.21R WCI  27
$$

NEZ044-045-051>053-067-061600-
OMAHA AREA

CITY           SKY/WX    TMP DP  RH WIND       PRES   REMARKS
OMAHA EPPLEY   MOSUNNY   29  17  61 S5        30.22R WCI  24
BLAIR          SUNNY     31  16  54 SW9       30.19R WCI  23
FREMONT        SUNNY     33  18  52 SW6       30.20R WCI  28
MILLARD        SUNNY     33  17  52 W7        30.22R WCI  27
OFFUTT AFB     SUNNY     29  18  61 SW2       30.21R
PLATTSMOUTH    SUNNY     34  16  48 SW8       30.21R WCI  27
WAHOO          FAIR      35  17  47 W12       30.20S WCI  27
$$



USA.gov is the U.S. government's official web portal to all federal, state and local government web resources and services.